| time (UTC) | temp C | wind direction | speed KPH | gust KPH | rain 1hr cm | rain 24hr cm | rain mn cm | humidity % | barometer mb |
| 20260504081502 | 6 | 233 | 0.0 | 1.6 | 0.00 | 0.00 | 0.00 | 67 | 1014.6 |
| 20260504050006 | 8 | 234 | 0.0 | 1.6 | 0.00 | 0.00 | 0.00 | 62 | 1014.3 |
| 20260504044508 | 8 | 234 | 0.0 | 3.2 | 0.00 | 0.00 | 0.00 | 61 | 1014.7 |
| 20260504044505 | 8 | 234 | 1.6 | 3.2 | 0.00 | 0.00 | 0.00 | 61 | 1014.4 |
| 20260504043008 | 8 | 234 | 1.6 | 3.2 | 0.00 | 0.00 | 0.00 | 60 | 1014.8 |
| 20260504043006 | 8 | 234 | 1.6 | 3.2 | 0.00 | 0.00 | 0.00 | 60 | 1014.4 |
| 20260504041504 | 8 | 234 | 0.0 | 1.6 | 0.00 | 0.00 | 0.00 | 59 | 1014.5 |
| 20260504040008 | 8 | 234 | 0.0 | 1.6 | 0.00 | 0.00 | 0.00 | 58 | 1014.0 |
| 20260504034504 | 9 | 234 | 1.6 | 1.6 | 0.00 | 0.00 | 0.00 | 58 | 1014.0 |
| 20260504033003 | 9 | 234 | 0.0 | 3.2 | 0.00 | 0.00 | 0.00 | 57 | 1014.2 |
| 20260504031505 | 9 | 234 | 1.6 | 3.2 | 0.00 | 0.00 | 0.00 | 57 | 1013.8 |
| 20260504030018 | 10 | 235 | 0.0 | 1.6 | 0.00 | 0.00 | 0.00 | 56 | 1014.1 |
| 20260504030006 | 10 | 235 | 0.0 | 1.6 | 0.00 | 0.00 | 0.00 | 56 | 1013.7 |
| 20260504024506 | 10 | 235 | 0.0 | 1.6 | 0.00 | 0.00 | 0.00 | 55 | 1014.0 |
| 20260504023004 | 10 | 235 | 0.0 | 3.2 | 0.00 | 0.00 | 0.00 | 54 | 1013.6 |
| 20260504021506 | 10 | 236 | 0.0 | 3.2 | 0.00 | 0.00 | 0.00 | 54 | 1013.8 |
| 20260504021504 | 10 | 236 | 0.0 | 3.2 | 0.00 | 0.00 | 0.00 | 54 | 1014.1 |
| 20260504020007 | 10 | 235 | 0.0 | 3.2 | 0.00 | 0.00 | 0.00 | 53 | 1014.0 |
| 20260504014509 | 10 | 233 | 0.0 | 3.2 | 0.00 | 0.00 | 0.00 | 54 | 1014.0 |
| 20260504014504 | 10 | 233 | 0.0 | 3.2 | 0.00 | 0.00 | 0.00 | 54 | 1013.6 |
| 20260504013004 | 10 | 233 | 0.0 | 1.6 | 0.00 | 0.00 | 0.00 | 53 | 1013.5 |
| 20260504011505 | 11 | 234 | 0.0 | 3.2 | 0.00 | 0.00 | 0.00 | 52 | 1013.3 |
| 20260504011503 | 11 | 234 | 1.6 | 3.2 | 0.00 | 0.00 | 0.00 | 52 | 1013.6 |
| 20260504010007 | 11 | 233 | 0.0 | 1.6 | 0.00 | 0.00 | 0.00 | 52 | 1013.2 |
| 20260504010005 | 11 | 233 | 0.0 | 1.6 | 0.00 | 0.00 | 0.00 | 52 | 1013.5 |
| 20260504004509 | 11 | 233 | 0.0 | 1.6 | 0.00 | 0.00 | 0.00 | 51 | 1013.4 |
| 20260504004505 | 11 | 233 | 0.0 | 1.6 | 0.00 | 0.00 | 0.00 | 51 | 1013.1 |
| 20260504003010 | 11 | 238 | 0.0 | 1.6 | 0.00 | 0.00 | 0.00 | 51 | 1013.3 |
| 20260504003004 | 11 | 238 | 0.0 | 1.6 | 0.00 | 0.00 | 0.00 | 51 | 1013.0 |
| 20260504001503 | 11 | 238 | 0.0 | 1.6 | 0.00 | 0.00 | 0.00 | 49 | 1013.1 |
| 20260504000007 | 11 | 239 | 0.0 | 1.6 | 0.00 | 0.00 | 0.00 | 49 | 1012.6 |
| 20260504000004 | 11 | 239 | 0.0 | 1.6 | 0.00 | 0.00 | 0.00 | 49 | 1012.9 |
| 20260503234508 | 12 | 233 | 0.0 | 1.6 | 0.00 | 0.00 | 0.00 | 49 | 1012.8 |
| 20260503233004 | 12 | 250 | 0.0 | 1.6 | 0.00 | 0.00 | 0.00 | 49 | 1012.5 |
| 20260503231505 | 12 | 231 | 0.0 | 1.6 | 0.00 | 0.00 | 0.00 | 48 | 1012.3 |
| 20260503231503 | 12 | 231 | 0.0 | 1.6 | 0.00 | 0.00 | 0.00 | 48 | 1012.6 |
| 20260503230006 | 13 | 226 | 0.0 | 6.4 | 0.00 | 0.00 | 0.00 | 47 | 1012.4 |
| 20260503224503 | 13 | 243 | 0.0 | 4.8 | 0.00 | 0.00 | 0.00 | 45 | 1012.6 |
| 20260503223005 | 13 | 264 | 0.0 | 6.4 | 0.00 | 0.00 | 0.00 | 46 | 1012.3 |
| 20260503223003 | 13 | 264 | 1.6 | 6.4 | 0.00 | 0.00 | 0.00 | 46 | 1012.6 |
| 20260503221504 | 13 | 288 | 0.0 | 4.8 | 0.00 | 0.00 | 0.00 | 47 | 1012.6 |
| 20260503220007 | 13 | 293 | 1.6 | 6.4 | 0.00 | 0.00 | 0.00 | 46 | 1012.3 |
| 20260503214502 | 13 | 289 | 1.6 | 6.4 | 0.00 | 0.00 | 0.00 | 45 | 1012.7 |
| 20260503213004 | 14 | 283 | 1.6 | 6.4 | 0.00 | 0.00 | 0.00 | 44 | 1012.3 |
| 20260503211504 | 15 | 297 | 1.6 | 6.4 | 0.00 | 0.00 | 0.00 | 43 | 1012.3 |
| 20260503211502 | 15 | 297 | 1.6 | 6.4 | 0.00 | 0.00 | 0.00 | 43 | 1012.6 |
| 20260503210006 | 15 | 295 | 0.0 | 4.8 | 0.00 | 0.00 | 0.00 | 46 | 1012.6 |
| 20260503204504 | 15 | 295 | 1.6 | 8.0 | 0.00 | 0.00 | 0.00 | 42 | 1012.3 |
| 20260503203004 | 14 | 293 | 3.2 | 9.7 | 0.00 | 0.00 | 0.00 | 42 | 1012.4 |
| 20260503203002 | 14 | 293 | 0.0 | 9.7 | 0.00 | 0.00 | 0.00 | 42 | 1012.8 |
| 20260503201505 | 14 | 283 | 3.2 | 8.0 | 0.00 | 0.00 | 0.00 | 45 | 1012.5 |
| 20260503201503 | 14 | 283 | 1.6 | 8.0 | 0.00 | 0.00 | 0.00 | 45 | 1012.9 |
| 20260503200006 | 14 | 295 | 1.6 | 8.0 | 0.00 | 0.00 | 0.00 | 44 | 1013.0 |
| 20260503194504 | 15 | 292 | 3.2 | 6.4 | 0.00 | 0.00 | 0.00 | 43 | 1012.7 |
| 20260503194502 | 15 | 292 | 1.6 | 6.4 | 0.00 | 0.00 | 0.00 | 43 | 1013.1 |
| 20260503193005 | 15 | 292 | 3.2 | 9.7 | 0.00 | 0.00 | 0.00 | 43 | 1013.0 |
| 20260503193002 | 15 | 292 | 3.2 | 9.7 | 0.00 | 0.00 | 0.00 | 43 | 1013.3 |
| 20260503191503 | 13 | 295 | 3.2 | 8.0 | 0.00 | 0.00 | 0.00 | 48 | 1013.5 |
| 20260503190006 | 13 | 289 | 4.8 | 11.3 | 0.00 | 0.00 | 0.00 | 47 | 1013.2 |
| 20260503184507 | 13 | 293 | 4.8 | 9.7 | 0.00 | 0.00 | 0.00 | 46 | 1013.7 |
| 20260503184504 | 13 | 293 | 3.2 | 9.7 | 0.00 | 0.00 | 0.00 | 46 | 1013.4 |
| 20260503183004 | 13 | 293 | 3.2 | 9.7 | 0.00 | 0.00 | 0.00 | 46 | 1013.5 |
| 20260503181504 | 13 | 268 | 3.2 | 11.3 | 0.00 | 0.00 | 0.00 | 47 | 1013.9 |
| 20260503180017 | 12 | 281 | 1.6 | 9.7 | 0.00 | 0.00 | 0.00 | 49 | 1014.0 |
| 20260503180007 | 12 | 281 | 4.8 | 9.7 | 0.00 | 0.00 | 0.00 | 49 | 1013.6 |
| 20260503174506 | 12 | 285 | 3.2 | 11.3 | 0.00 | 0.00 | 0.00 | 50 | 1013.7 |
| 20260503173005 | 11 | 296 | 4.8 | 9.7 | 0.00 | 0.00 | 0.00 | 49 | 1013.7 |
| 20260503173003 | 11 | 296 | 1.6 | 9.7 | 0.00 | 0.00 | 0.00 | 49 | 1014.1 |
| 20260503171504 | 11 | 295 | 4.8 | 12.9 | 0.00 | 0.00 | 0.00 | 47 | 1013.9 |
| 20260503171502 | 11 | 295 | 4.8 | 12.9 | 0.00 | 0.00 | 0.00 | 47 | 1014.3 |